Manhattan, KS

4:17 AM CST on December 16, 2019 (GMT -0600)
Manhattan Regional

Weather History for KMHK - October, 2019

Change the Weather History Date:

Wednesday, October 30, 2019

  Actual Average Record
Temperature  
Mean Temperature 32 °F 50 °F  
Max Temperature 37 °F 63 °F 79 °F (2008)
Min Temperature 27 °F 37 °F 26 °F (2015)
Degree Days  
Heating Degree Days 33 15  
Month to date heating degree days 398 312  
Since 1 July heating degree days 399 382  
Cooling Degree Days 0 0  
Month to date cooling degree days 15 21  
Year to date cooling degree days 1610 1358  
Moisture  
Dew Point 25 °F    
Average Humidity 75    
Maximum Humidity 92    
Minimum Humidity 56    
Precipitation  
Precipitation 0.02 in 0.06 in 0.90 in (2013)
Month to date precipitation 2.86 2.16  
Year to date precipitation 40.84 29.87  
Sea Level Pressure  
Sea Level Pressure 30.31 in    
Wind  
Wind Speed 9 mph ()    
Max Wind Speed 20 mph    
Max Gust Speed 32 mph    
Visibility 7.7 miles    
Events Snow    
T = Trace of Precipitation, MM = Missing Value Source: Averaged Metar Reports

Daily Weather History Graph

Daily Weather History Graph

Search for Another Location

Airport or City:

Astronomy

Oct. 30, 2019 Rise Set
Actual Time 7:51 AM CDT 6:28 PM CDT
Civil Twilight 7:24 AM CDT 6:55 PM CDT
Nautical Twilight 6:52 AM CDT 7:27 PM CDT
Astronomical Twilight 6:21 AM CDT 7:58 PM CDT
Moon 10:35 AM CDT (10/30) 8:38 PM CDT (10/30)
Length of Visible Light 11h 31m
Length of Day
10h 36m
Waxing Crescent, 9% of the Moon is Illuminated
Oct 30
Waxing Crescent
Nov 4
First Quarter
Nov 12
Full
Nov 19
Last Quarter
Nov 26
New

Hourly Weather History & Observations

Time (CDT) Temp. Windchill Dew Point Humidity Pressure Visibility Wind Dir Wind Speed Gust Speed Precip Events Conditions
12:52 AM 36.0 °F 28.0 °F 28.0 °F 73% 30.31 in 10.0 mi NE 11.5 mph - N/A   Overcast
1:52 AM 36.0 °F 29.6 °F 27.0 °F 70% 30.31 in 10.0 mi NNE 8.1 mph - N/A   Overcast
2:52 AM 37.0 °F 29.8 °F 27.0 °F 67% 30.30 in 10.0 mi NNE 10.4 mph - N/A   Overcast
3:52 AM 36.0 °F 29.6 °F 28.0 °F 73% 30.30 in 10.0 mi NNE 8.1 mph 20.7 mph N/A   Overcast
4:52 AM 35.1 °F 27.4 °F 26.1 °F 70% 30.30 in 10.0 mi North 10.4 mph 23.0 mph N/A   Overcast
5:52 AM 34.0 °F 24.2 °F 25.0 °F 70% 30.30 in 10.0 mi NNE 15.0 mph 26.5 mph N/A   Overcast
6:52 AM 34.0 °F 25.5 °F 24.1 °F 67% 30.30 in 10.0 mi NNE 11.5 mph - N/A   Overcast
7:52 AM 33.1 °F 23.4 °F 23.0 °F 66% 30.30 in 10.0 mi NNE 13.8 mph 20.7 mph N/A   Overcast
8:52 AM 33.1 °F 22.6 °F 21.0 °F 61% 30.33 in 10.0 mi NNE 16.1 mph 26.5 mph N/A   Overcast
9:52 AM 33.1 °F 23.0 °F 19.0 °F 56% 30.34 in 10.0 mi NNE 15.0 mph 25.3 mph N/A   Overcast
10:52 AM 33.1 °F 22.6 °F 19.9 °F 59% 30.34 in 10.0 mi North 16.1 mph 24.2 mph N/A   Overcast
11:52 AM 33.1 °F 23.0 °F 21.0 °F 61% 30.34 in 10.0 mi NNE 15.0 mph 21.9 mph N/A   Overcast
12:52 PM 32.0 °F 22.1 °F 21.9 °F 66% 30.34 in 9.0 mi NNE 13.8 mph 23.0 mph 0.00 in   Overcast
1:52 PM 33.1 °F 24.9 °F 24.1 °F 70% 30.31 in 9.0 mi North 10.4 mph 26.5 mph 0.00 in Snow Light Snow
2:03 PM 32.0 °F 22.5 °F 24.1 °F 73% 30.28 in 9.0 mi North 12.7 mph 23.0 mph 0.00 in Snow Light Snow
2:52 PM 32.0 °F 22.5 °F 25.0 °F 75% 30.30 in 10.0 mi North 12.7 mph 20.7 mph 0.00 in   Overcast
3:00 PM 33.1 °F 24.9 °F 25.0 °F 72% 30.26 in 10.0 mi North 10.4 mph 20.7 mph N/A   Overcast
3:33 PM 32.0 °F 24.8 °F 25.0 °F 75% 30.26 in 9.0 mi North 8.1 mph 19.6 mph 0.00 in   Overcast
3:52 PM 33.1 °F 24.4 °F 25.0 °F 72% 30.29 in 10.0 mi North 11.5 mph 20.7 mph 0.00 in   Overcast
4:52 PM 32.0 °F 25.6 °F 25.0 °F 75% 30.30 in 6.0 mi North 6.9 mph 21.9 mph 0.01 in Snow Light Snow
5:12 PM 30.9 °F 22.8 °F 25.0 °F 79% 30.27 in 7.0 mi North 9.2 mph 16.1 mph 0.00 in Snow Light Snow
5:52 PM 30.0 °F 23.2 °F 25.0 °F 82% 30.30 in 3.0 mi Variable 6.9 mph - 0.00 in Snow Light Snow
6:52 PM 30.0 °F 25.2 °F 26.1 °F 85% 30.31 in 5.0 mi Variable 4.6 mph - 0.00 in Snow Light Snow
7:15 PM 30.0 °F 25.2 °F 25.0 °F 82% 30.28 in 5.0 mi NW 4.6 mph - 0.00 in Snow Light Snow
7:52 PM 28.9 °F 21.1 °F 25.0 °F 85% 30.32 in 4.0 mi NNW 8.1 mph - 0.00 in Snow Light Snow
8:03 PM 28.9 °F 22.8 °F 25.0 °F 85% 30.29 in 4.0 mi NNW 5.8 mph - 0.00 in Snow Light Snow
8:52 PM 28.9 °F 23.9 °F 26.1 °F 89% 30.33 in 2.5 mi WNW 4.6 mph - 0.00 in Snow Light Snow
9:04 PM 28.9 °F 23.9 °F 26.1 °F 89% 30.30 in 3.0 mi Variable 4.6 mph - 0.01 in Snow Light Snow
9:28 PM 28.9 °F 22.8 °F 26.1 °F 89% 30.30 in 3.0 mi Variable 5.8 mph - 0.01 in Snow Light Snow
9:52 PM 28.9 °F 22.8 °F 25.0 °F 85% 30.35 in 5.0 mi WNW 5.8 mph - 0.01 in Snow Light Snow
10:52 PM 28.9 °F 22.8 °F 25.0 °F 85% 30.35 in 4.0 mi Variable 5.8 mph - 0.00 in Snow Light Snow
11:52 PM 28.0 °F 20.8 °F 24.1 °F 85% 30.34 in 10.0 mi WNW 6.9 mph - 0.00 in   Overcast